Regional Weather Roundup
Issued by NWS

Home | Current Version | Previous Version | Graphics & Text | Print | Product List | Glossary On
Versions: 1 2 3 4 5 6 7 8 9 10 11 12 13 14 15 16 17 18 19 20 21 22 23 24 25 26 27 28 29 30 31 32 33 34 35 36 37 38 39 40 41 42 43 44 45 46 47 48 49 50
000
ASUS43 KDMX 260507
RWRIA

WEATHER ROUNDUP FOR IOWA
NATIONAL WEATHER SERVICE DES MOINES IA
1200 AM CDT TUE MAY 26 2015

NOTE: "FAIR" INDICATES FEW OR NO CLOUDS BELOW 12,000 FEET WITH NO
SIGNIFICANT WEATHER AND/OR OBSTRUCTIONS TO VISIBILITY.

* - THESE STATIONS ARE NOT NWS STATIONS...THUS NOT UNDER NWS
QUALITY CONTROL.  THEY ALSO DO NOT REPORT WEATHER SUCH
AS PRECIPITATION OR FOG.

IAZ001>003-012>014-020>022-031>034-043>046-260600-
   NORTHWEST IOWA

CITY           SKY/WX    TMP DP  RH WIND       PRES   REMARKS
CARROLL *      PTCLDY    61  57  88 SE5       29.83F
CHEROKEE *     CLOUDY    64  61  88 S8        29.80F
DENISON *      PTCLDY    64  61  88 S13G21    29.79R
LE MARS *      MOCLDY    66  61  82 S6        29.80S
ORANGE CITY *  MOCLDY    63  59  88 E6        29.80S
SHELDON *      MOCLDY    63  61  94 E12G22    29.80R
SIOUX CITY     CLOUDY    66  57  72 SW8       29.78S
SPENCER        LGT RAIN  65  60  84 SW14      29.83R
STORM LAKE *   CLOUDY    64  59  82 SE12G20   29.82F
$$

IAZ055>058-069>071-079>083-090>094-260600-
   SOUTHWEST IOWA

CITY           SKY/WX    TMP DP  RH WIND       PRES   REMARKS
ATLANTIC *     MOCLDY    63  55  77 CALM      29.82F
AUDUBON *      CLEAR     61  55  82 CALM      29.84F
COUNCIL BLFS * CLOUDY    63  63 100 NE5       29.81F
CRESTON *      CLEAR     63  59  88 S7        29.82F
HARLAN  *      PTCLDY    63  63 100 SE3       29.85F
LAMONI           N/A     63  58  83 E6        29.84F
RED OAK *      CLOUDY    63  59  88 W5        29.79F
SHENANDOAH *   CLEAR     63  59  88 N3        29.79F
$$

IAZ047>049-059>061-072>074-084-260600-
   CENTRAL IOWA

CITY           SKY/WX    TMP DP  RH WIND       PRES   REMARKS
AMES           LGT RAIN  62  59  90 CALM      29.82F
ANKENY *       MOCLDY    61  61 100 CALM      29.81F
CHARITON *     CLEAR     61  59  94 SE5       29.85F
DES MOINES     CLOUDY    65  58  78 CALM      29.81F
GRINNELL*      CLOUDY    63  57  82 SW7       29.86S
KNOXVILLE *    PTCLDY    61  59  94 SE6       29.83F
MARSHALLTOWN   LGT RAIN  64  58  80 W13G25    29.83F
PELLA *        CLOUDY    62  61  96 S5        29.86F
PERRY *        LGT RAIN  63  57  82 CALM      29.84F
$$

IAZ004>006-015-016-023>025-035-036-260600-
   NORTH CENTRAL IOWA

CITY           SKY/WX    TMP DP  RH WIND       PRES   REMARKS
ALGONA *       CLOUDY    66 -38   1 SW18G25   29.82S
CLARION *      CLOUDY    61  59  94 S17       29.83S
ESTHERVILLE    CLOUDY    65  58  78 SE9       29.81R
FORT DODGE *   CLOUDY    61  54  77 S6        29.84F
MASON CITY     CLOUDY    67  57  70 S12       29.83R
FOREST CITY *  PTCLDY    63  55  77 SW7       29.81F
IOWA FALLS *   MOCLDY    64  57  77 W10       29.88R
$$

IAZ007>011-017>019-026>030-037>042-050>054-066-260600-
   NORTHEAST IOWA

CITY           SKY/WX    TMP DP  RH WIND       PRES   REMARKS
CEDAR RAPIDS   CLEAR     68  65  90 S7        29.85F
CHARLES CITY * CLOUDY    63  61  94 SW14G24   29.88R FOG
CLINTON *      CLEAR     66  61  82 S8        29.90S
DECORAH *      CLEAR     68  64  88 S9G16     29.81F
DUBUQUE        CLEAR     66  61  84 S9        29.87F
MONTICELLO *   CLEAR     68  66  94 S9        29.86S
OELWEIN *      PTCLDY    68  64  88 S10       29.86R
WATERLOO       CLOUDY    67  61  81 NW13      29.87R
$$

IAZ064-065-067-068-078-260600-
   EAST CENTRAL IOWA

CITY           SKY/WX    TMP DP  RH WIND       PRES   REMARKS
DAVENPORT      CLEAR     69  62  78 S12       29.89F
IOWA CITY      CLEAR     67  64  90 SE6       29.87F
MT. PLEASANT * PTCLDY    66  64  94 E6        29.87S
MUSCATINE *    CLEAR     66  64  94 CALM      29.87S
QUAD CITIES    PTCLDY    68  61  78 SE7       29.88F
$$

IAZ062-063-075>077-085>089-095>099-260600-
   SOUTHEAST IOWA

CITY           SKY/WX    TMP DP  RH WIND       PRES   REMARKS
BURLINGTON     MOCLDY    72  66  81 S12       29.86F
FAIRFIELD *    MOCLDY    68  64  88 SE5       29.86S
FORT MADISON * CLEAR     70  64  83 SE10      29.88S
KEOKUK *       CLEAR     72  66  83 SE7       29.86F
OSKALOOSA *    MOCLDY    66  59  77 W6        29.87R
CENTERVILLE *  MOCLDY    64  64 100 N6        29.88F
OTTUMWA        CLOUDY    68  59  73 NW9       29.87R
WASHINGTON *   PTCLDY    66  64  94 SE7       29.88S
$$

ABBREVIATIONS USED IN REMARKS
   TC - TEMPERATURES IN CELSIUS
  WCI - WIND CHILL INDEX
   HX - HEAT INDEX
  VSB - VISIBILITY
$$




USA.gov is the U.S. government's official web portal to all federal, state and local government web resources and services.